RH
81 87 91 93 83 85 73 82 80 51 81 49 78 66 71 64 56 48 44 40 38 36 33 30 28 26 25 24 23 22 22 20 18 17 15 15 13 10 12 33 44 34 26 20
79 97 96 83 64 66 70 76 85 93 74 83 78 70 65 62 57 50 42 35 32 31 30 29 30 30 28 28 27 26 22 20 19 19 19 18 15 20 46 53 41 31 24 25
86 100 100 82 52 73 82 84 95 92 78 76 71 66 55 57 45 36 31 29 28 29 31 34 34 31 31 31 28 25 23 23 24 28 28 24 27 52 56 51 42 31 26 26
100 100 97 54 64 70 77 81 85 78 71 66 46 39 36 35 31 32 32 32 36 39 36 33 33 33 31 31 29 29 31 34 42 41 36 30 40 46 54 50 43 28 24 20
100 100 91 60 48 70 80 59 59 55 41 28 29 36 22 30 42 34 42 47 45 38 40 37 34 33 33 37 49 49 44 46 49 43 40 48 44 25 35 52 39 27 23 20
99 94 83 45 47 51 53 45 34 32 28 26 32 32 24 39 46 51 50 46 40 39 46 48 45 41 55 70 63 62 59 52 46 47 62 58 35 32 40 38 27 23 15 13
49 38 33 20 18 19 24 17 28 31 31 34 40 45 41 38 45 49 46 41 38 41 58 65 56 58 56 58 64 60 57 56 54 55 90 61 46 49 32 25 23 21 18 19
45 45 45 26 33 26 29 38 41 45 47 49 47 46 48 53 55 51 54 51 38 45 59 77 74 84 83 76 71 60 43 54 74 57 75 90 85 55 39 30 24 26 23 25
80 50 52 63 64 73 63 59 57 61 72 63 54 55 66 85 92 100 91 100 79 64 70 84 92 91 100 83 70 68 67 98 95 84 89 85 74 53 40 35 36 48 38 28
89 82 95 100 100 93 86 96 86 84 93 70 75 85 84 92 91 76 100 100 99 100 100 91 89 86 75 64 63 52 83 84 74 73 72 49 44 41 39 39 66 79 45 28
97 100 100 100 100 100 100 98 100 100 100 97 98 100 100 100 100 100 100 100 100 100 100 100 88 92 100 100 100 100 93 79 88 70 48 41 37 43 50 68 97 75 50 31
99 100 100 100 100 100 100 100 100 100 100 100 100 100 100 100 100 100 100 100 100 100 100 88 97 100 100 100 95 86 65 58 56 75 98 97 86 84 95 72 55 42 31 30
100 100 100 100 100 100 100 100 100 100 100 100 100 100 100 100 100 100 100 100 100 93 87 94 100 100 100 100 93 73 64 62 70 86 100 90 79 85 79 62 41 36 31 26
100 100 100 100 99 97 94 90 89 85 86 96 100 100 100 99 92 99 99 99 97 91 100 98 94 100 98 93 67 75 86 95 98 98 89 75 68 62 52 39 33 30 27 24
95 99 100 100 99 100 99 99 100 100 97 100 96 84 75 76 72 69 65 70 96 100 100 100 100 100 97 83 88 87 86 78 80 74 64 53 42 35 30 26 24 20 19 18
98 96 98 100 98 99 94 92 97 96 81 66 59 57 58 76 93 100 100 100 100 96 96 100 98 86 89 90 92 90 79 62 51 40 32 28 25 21 18 16 14 13 13 13
92 97 89 82 80 78 74 72 64 66 68 63 84 100 100 100 100 100 100 100 100 100 100 97 92 94 95 86 63 51 42 35 30 25 21 17 16 16 16 15 14 13 12 12
63 80 100 100 97 82 82 78 81 84 80 80 97 100 100 100 100 100 100 100 100 100 97 92 86 71 54 45 38 33 29 24 18 17 17 17 15 14 14 14 13 12 11 11
100 100 89 81 81 75 73 74 96 100 100 100 100 100 100 100 100 100 100 98 91 86 72 58 47 40 37 34 29 24 20 19 20 20 20 19 18 18 16 14 14 14 14 13
100 100 91 78 76 98 98 100 100 100 100 100 100 100 100 100 99 94 86 73 58 49 43 40 37 36 30 25 25 22 24 27 26 24 22 20 19 17 14 12 11 12 14 15
100 100 96 89 100 100 100 100 100 100 100 100 100 100 100 96 85 69 56 50 46 43 41 39 34 30 27 31 31 33 33 26 22 20 18 16 14 12 11 10 10 10 11 14
100 100 100 100 100 100 100 100 100 100 100 100 100 100 92 78 63 56 52 50 47 43 38 37 36 37 39 39 37 33 26 21 18 16 14 13 12 12 11 10 10 9 9 13
100 100 100 100 100 100 100 100 100 100 100 100 100 88 72 63 58 57 52 46 44 43 42 43 44 45 44 40 35 28 22 17 15 15 15 15 14 13 12 12 11 10 9 14
100 100 100 100 100 100 100 100 100 100 100 97 82 71 66 63 57 55 51 49 48 48 48 46 47 46 42 37 29 22 17 16 18 18 17 16 15 14 14 13 12 10 11 16
100 100 100 100 100 100 100 100 100 100 92 83 75 70 68 66 60 55 54 54 54 53 51 47 46 45 39 30 23 18 19 20 20 20 19 19 18 17 16 14 13 12 16 17
100 100 100 100 100 100 100 100 100 97 93 86 83 80 76 71 68 65 60 58 57 54 51 49 47 42 34 25 20 22 24 24 24 24 24 24 21 19 17 15 15 18 18 17
100 100 100 100 100 100 100 100 100 100 99 96 92 86 80 76 72 71 66 64 61 57 53 51 47 40 28 23 26 27 27 29 34 39 35 27 26 24 20 18 19 20 18 16
Wind_Speed
61 61 62 61 58 56 58 55 58 50 54 50 45 43 53 52 55 59 58 55 54 56 57 58 59 58 59 61 64 64 65 65 61 61 62 64 60 59 64 63 62 61 60 59
60 57 58 59 58 60 62 58 60 55 58 45 50 53 52 55 59 60 56 57 59 62 62 61 62 64 65 64 65 65 65 64 61 63 65 64 58 59 60 61 59 58 59 58
60 58 58 63 58 58 58 60 58 61 56 53 54 52 56 57 60 60 61 65 66 65 64 65 64 65 64 65 64 63 61 61 62 65 67 58 56 58 59 59 58 59 62 57
58 60 66 61 56 60 62 61 62 63 60 54 55 59 61 64 64 64 67 69 67 66 65 63 65 64 65 65 63 61 59 60 64 64 58 55 60 60 61 61 62 57 59 56
67 70 72 68 63 62 60 67 66 65 60 62 66 68 67 64 64 70 70 69 66 64 63 64 66 66 66 65 63 62 61 63 63 60 59 61 59 59 63 62 59 56 57 61
69 75 78 66 62 66 69 79 67 64 66 70 70 75 72 69 72 68 66 68 69 69 65 65 65 65 63 63 69 68 65 63 60 61 64 62 62 60 60 57 58 59 56 55
76 81 83 72 70 71 78 80 68 70 70 73 79 80 80 74 72 73 73 72 72 69 66 66 65 66 67 70 68 69 69 63 61 64 66 66 64 61 61 59 60 57 55 53
84 82 86 77 73 78 75 74 76 79 79 81 78 79 76 74 75 76 72 74 76 73 69 69 65 68 72 73 76 72 70 66 64 63 66 69 65 62 63 64 61 61 58 59
76 88 83 77 75 68 75 84 83 82 81 79 78 74 75 73 62 66 70 70 75 79 74 70 68 73 77 71 66 64 65 65 64 64 65 65 65 65 66 66 68 68 63 58
85 83 70 63 67 76 83 84 85 78 72 75 73 73 74 71 70 75 74 76 77 73 69 72 73 74 72 71 64 64 62 61 61 61 61 64 66 68 69 73 74 71 65 60
81 77 77 84 87 82 81 81 74 74 76 76 74 76 78 78 83 84 82 84 83 81 77 77 80 64 68 64 59 57 57 60 65 65 64 68 73 75 77 74 69 67 65 64
79 80 83 84 84 87 75 72 73 74 71 76 79 81 80 83 82 83 84 77 76 79 82 77 62 65 64 58 58 61 64 67 69 73 78 77 74 72 69 68 66 66 68 66
84 85 86 80 74 73 77 77 81 87 88 91 89 86 80 76 72 72 77 83 82 79 62 60 61 62 62 65 67 70 72 74 75 75 74 73 71 69 66 68 71 70 70 71
67 66 67 75 80 80 86 89 89 84 76 75 78 78 78 82 85 78 70 65 66 65 64 65 65 69 73 73 77 75 73 71 69 69 67 67 69 71 72 73 73 75 74 70
70 71 71 71 72 73 71 72 72 72 78 78 75 72 72 71 68 70 71 68 65 65 67 66 67 72 74 73 69 67 64 64 67 69 70 73 75 76 77 77 76 71 69 68
60 65 64 60 64 64 67 70 68 66 63 64 65 63 58 57 57 60 63 64 63 62 62 63 65 69 67 66 66 67 68 69 71 73 76 77 78 77 75 71 67 64 62 59
56 58 58 58 56 56 54 54 54 53 53 53 54 55 55 55 55 56 55 55 57 58 58 58 60 62 65 66 68 70 72 73 75 76 75 72 68 65 63 61 59 58 56 55
61 48 45 43 45 46 47 49 51 53 54 54 55 55 54 55 56 55 52 50 50 54 57 59 61 63 66 70 72 73 73 72 69 66 63 62 62 62 60 58 57 55 52 52
38 40 42 43 45 48 48 48 46 45 46 49 49 45 42 42 43 45 48 51 54 57 59 61 64 66 69 71 72 69 65 61 59 58 58 58 57 56 53 51 49 48 48 48
39 41 42 45 44 40 40 38 38 37 38 38 38 38 40 42 45 47 50 53 56 59 62 64 65 65 66 64 60 57 55 52 52 53 53 51 49 49 50 49 47 45 44 44
40 41 40 39 33 31 31 32 33 33 34 37 38 40 41 44 47 51 54 57 58 60 61 60 59 57 56 52 51 48 47 48 49 49 47 47 48 48 46 46 44 43 42 41
38 36 35 33 33 33 33 35 35 36 37 38 40 42 45 49 52 54 54 54 56 56 54 52 50 47 47 46 43 44 45 46 46 45 44 42 41 40 40 39 39 39 39 39
36 35 35 35 34 34 34 35 36 37 39 40 43 46 49 50 49 49 51 50 50 48 46 44 43 42 41 40 42 43 44 44 41 39 36 35 35 35 34 34 33 34 36 36
39 38 36 35 35 35 35 35 36 38 40 42 45 45 45 45 46 46 46 45 44 42 41 39 38 38 38 39 41 41 39 36 32 30 29 29 28 28 27 27 28 29 32 33
37 37 37 36 35 35 35 35 37 39 41 41 40 40 41 41 43 43 41 40 38 37 37 36 35 35 36 38 38 35 30 26 25 23 23 22 21 21 22 22 23 26 28 30
38 38 37 36 35 35 35 37 38 37 37 36 37 37 38 40 41 40 39 38 37 35 34 34 33 33 35 34 31 25 21 19 17 15 14 14 15 16 17 17 19 22 25 28
39 38 37 36 37 37 37 37 35 34 34 34 35 36 37 38 38 38 37 36 35 34 33 32 31 32 32 26 20 16 12 9 7 7 9 9 9 10 11 14 17 19 22 26
Wind_Direction
266 267 270 273 275 275 276 274 274 285 276 282 280 278 277 282 283 282 284 286 285 287 289 292 292 291 289 289 290 290 289 288 285 284 286 286 285 280 274 275 275 275 277 277
266 266 267 268 272 274 275 278 278 277 277 284 276 282 286 281 280 281 283 286 288 289 291 291 291 291 291 291 291 290 289 287 284 283 285 285 283 278 278 277 275 280 282 278
266 264 262 265 274 274 273 273 276 275 281 277 280 282 279 280 280 285 288 287 289 290 291 292 292 292 292 291 291 289 288 286 285 280 285 286 283 279 276 276 276 280 279 277
266 265 263 275 271 270 271 273 273 276 278 282 285 280 281 285 288 290 288 289 290 289 290 292 291 291 291 291 291 293 291 287 284 285 284 281 281 279 276 275 274 275 276 276
270 271 273 273 280 283 277 273 277 282 288 286 283 284 286 291 289 287 289 287 286 289 292 290 291 293 292 294 294 294 289 286 284 283 279 278 278 280 279 276 276 275 277 278
275 276 277 278 277 278 279 276 283 288 284 284 285 286 289 285 285 290 290 288 289 293 291 289 291 292 291 286 288 290 290 290 282 278 276 276 275 276 278 278 279 279 281 285
277 277 277 280 279 278 277 288 283 283 286 285 286 289 290 288 286 289 290 288 290 292 285 283 288 288 288 291 287 289 289 279 276 275 274 272 272 273 277 277 277 278 283 282
276 275 278 287 281 278 285 279 282 284 286 287 286 287 286 282 285 286 283 284 291 291 286 282 285 283 286 287 289 291 291 278 273 273 272 272 273 272 274 274 272 274 277 274
275 280 283 285 288 284 282 288 288 286 286 283 284 279 277 278 281 275 273 275 280 285 283 280 279 286 284 286 282 280 276 275 276 277 276 275 274 271 273 273 272 273 274 273
278 281 283 275 273 274 280 282 285 285 276 281 279 273 273 278 273 277 273 280 276 275 273 280 285 287 287 288 283 279 274 274 273 274 273 279 276 275 274 272 272 273 272 272
272 273 265 267 274 276 276 279 270 268 266 271 269 268 272 279 281 276 277 279 278 273 273 279 288 284 279 278 274 274 274 275 272 274 278 278 279 273 273 275 274 275 273 273
268 270 269 268 266 269 272 256 251 260 264 270 268 274 275 279 273 274 277 279 276 273 275 286 277 276 275 268 272 281 282 280 278 272 271 274 277 277 275 274 274 276 276 272
262 264 263 268 264 263 256 251 255 263 269 272 275 270 269 269 278 273 274 276 277 283 278 281 272 268 266 275 281 283 281 277 274 274 274 276 275 273 272 276 277 276 275 274
254 254 257 260 267 267 267 270 273 275 274 271 267 265 267 276 280 279 282 282 281 281 274 277 278 270 272 276 280 278 277 279 278 277 277 276 275 274 274 275 273 274 274 272
269 268 268 267 268 269 268 266 263 265 270 271 273 277 278 278 279 279 279 277 273 269 272 271 271 274 279 278 279 279 277 277 277 277 277 277 277 277 277 276 275 273 270 269
270 273 275 277 274 275 274 270 272 276 280 282 283 280 278 277 278 278 278 276 278 281 279 281 282 282 281 279 279 279 279 280 281 281 281 280 279 278 276 274 272 269 266 262
273 275 276 279 282 282 284 283 282 282 281 280 277 279 281 281 280 280 281 281 281 282 282 281 279 278 280 281 281 282 283 283 283 282 281 279 278 276 275 273 271 267 263 259
280 278 272 272 273 275 276 278 278 276 274 274 278 279 276 276 277 278 279 280 280 279 280 282 283 283 284 283 284 285 285 284 282 281 280 279 277 275 273 271 268 264 260 255
266 268 273 275 275 278 280 279 281 276 273 273 274 276 277 276 278 280 281 282 283 284 285 285 285 285 286 286 287 287 286 285 284 282 280 277 275 275 275 273 269 265 260 253
268 268 270 279 281 277 279 276 276 274 274 274 275 277 279 281 282 284 286 287 288 289 289 290 290 290 289 289 289 287 287 287 284 281 280 280 278 273 272 271 265 259 254 251
272 274 276 279 277 276 276 276 276 275 275 278 280 281 282 285 288 291 293 293 293 293 293 293 293 292 291 290 289 290 288 286 285 284 281 278 275 273 271 267 261 255 249 245
276 277 276 275 276 276 275 275 275 277 277 279 281 284 287 291 294 295 295 295 295 295 295 295 294 294 292 291 292 290 290 289 287 285 282 278 273 270 267 263 256 251 244 238
272 274 275 276 276 275 276 276 276 276 279 282 285 289 293 295 296 296 297 296 296 297 297 296 297 295 293 294 293 294 294 293 289 284 280 276 273 270 266 261 255 246 238 231
273 274 273 273 273 273 272 273 276 278 282 287 291 294 295 296 296 298 299 299 299 300 300 300 299 299 298 298 298 299 297 292 287 284 280 278 274 270 264 258 249 237 228 226
268 268 268 268 269 270 272 274 278 283 288 290 291 292 295 297 299 301 302 301 301 302 303 303 304 303 303 303 303 301 297 292 288 287 283 279 275 270 262 250 237 227 222 222
262 263 264 265 267 269 272 277 281 284 284 287 290 293 295 298 301 303 304 306 305 305 305 306 307 307 308 308 306 302 298 297 295 292 288 283 274 265 253 239 228 223 220 219
262 262 262 263 265 270 274 276 277 278 282 287 291 294 297 299 302 304 306 307 306 307 309 309 309 311 312 309 307 307 307 306 306 302 290 293 295 280 257 236 227 223 218 213